Regional Weather Roundup
Issued by NWS Jackson, KY

Home | Current Version | Previous Version | Graphics & Text | Print | Product List | Glossary On
Versions: 1 2 3 4 5 6 7 8 9 10 11 12 13 14 15 16 17 18 19 20 21 22 23 24 25 26 27 28 29 30 31 32 33 34 35 36 37 38 39 40 41 42 43 44 45 46 47 48
000
ASUS43 KJKL 261010
RWRJKL

EAST KENTUCKY HOURLY WEATHER ROUNDUP
NATIONAL WEATHER SERVICE JACKSON KY
600 AM EDT SUN APR 26 2015

NOTE: "FAIR" INDICATES FEW OR NO CLOUDS BELOW 12,000 FEET WITH
NO SIGNIFICANT WEATHER AND/OR OBSTRUCTIONS TO VISIBILITY.

* THESE REPORTS ARE NOT UNDER NWS QUALITY CONTROL AND MAY NOT
  REPORT WEATHER SUCH AS PRECIPITATION AND FOG.

KYZ079-080-083-085-087-088-110-112-115-119-120-261100
...EASTERN KENTUCKY...

CITY           SKY/WX    TMP DP  RH WIND       PRES   REMARKS
JACKSON        CLOUDY    44  42  93 CALM      29.66R
LONDON         LGT RAIN  51  46  83 NE9       29.65R
SOMERSET*      CLOUDY    45  45 100 N6        29.68S
MONTICELLO*    CLOUDY    49  49 100 NE10      29.69R FOG
MIDDLESBORO*   CLOUDY    58  58 100 CALM      29.62R
HARLAN APT*    CLOUDY    55  55 100 NW3       29.61R
HAZARD APT*    CLOUDY    45  45 100 NE3       29.66R
BLACK MTN*       N/A     48  48 100 W2          N/A
PIKEVILLE APT* DRIZZLE   43  43 100 N5        29.65R
BIG SANDY*     DRIZZLE   44  43  98 CALM      29.65S
MOREHEAD APT*  CLOUDY    43  41  93 N7        29.71R
$$

KYZ035-036-041-042-044-050-067-078-099-261100
...CENTRAL KENTUCKY...

CITY           SKY/WX    TMP DP  RH WIND       PRES   REMARKS
MT STERLING*   CLOUDY    43  41  93 NE8       29.70R
FLEMING/MASON* CLOUDY    41  39  93 N9        29.72R
DANVILLE*      CLOUDY    43  43 100 NE3       29.70R
RICHMOND*      CLOUDY    45  41  87 NE5       29.67S
LEXINGTON      CLOUDY    43  41  93 N9        29.70R
FRANKFORT      CLOUDY    44  41  89 N9        29.70R
$$

KYZ091>093-OHZ055-061-077-WVZ005-015-034-035-042-261100
...SOUTHERN OHIO/WEST VIRGINIA...

CITY           SKY/WX    TMP DP  RH WIND       PRES   REMARKS
COLUMBUS       MOCLDY    40  31  70 N7        29.74R
DAYTON         CLOUDY    41  33  73 N12       29.78R
WILMINGTON     CLOUDY    39  31  72 N10       29.74R WCI  32
HUNTINGTON     CLOUDY    42  41  96 N3        29.67R
CHARLESTON     LGT RAIN  43  41  93 N5        29.65R
PINEVILLE*     RAIN      49  49 100 MISG      29.65R
BECKLEY        FOG       44  42  93 N5        29.61R VSB 3/4
BLUEFIELD      RAIN      47  44  90 NE3       29.60R FOG
$$

VAZ002-007-008-TNZ017-027-036-066-071-261100
...SOUTHWEST VIRGINIA/EAST TENNESSEE...

CITY           SKY/WX    TMP DP  RH WIND       PRES   REMARKS
WISE*          FOG       54  54 100 NW6       29.62R VSB 1/4
JONESVILLE*    CLOUDY    57  57 100 W5        29.62S
ABINGDON*      CLOUDY    56  56 100 W3        29.58S FOG
BRISTOL        MOCLDY    59  57  93 SW8       29.59R
KNOXVILLE      MOCLDY    60  57  89 SW8       29.61R
OAK RIDGE      CLOUDY    60  58  92 CALM      29.62R
CROSSVILLE     CLOUDY    58  55  90 SW3       29.65R
NASHVILLE      CLOUDY    61  59  93 NW7       29.65R
$$

...KEY TO REMARKS...
VSB - VISIBILITY IN MILES
WCI - WIND CHILL INDEX
HX  - HEAT INDEX

$$



USA.gov is the U.S. government's official web portal to all federal, state and local government web resources and services.